TIME,DELAY(SENSOR),PRES,OXYGEN,RAWTEMP,T(OPTODE),TCPHASE,FLUOR,BETA(BETA700),BETA(BETA412),BETA(BETA440),CDOM,C(CSC),ED(ED411.90),ED(ED443.80),ED(ED489.40),ED(ED554.70),LU(LU412.20),LU(LU443.80),LU(LU489.40),LU(LU555.00),COMP,TILTX,TILTY,CHECK
1344810537,5805,822.6900024414062000,169.1869049072265600,431.1778869628906000,9.6501941680908200,38.7945289611816400,52,102,99,79,80,14064,2146958957,2147514285,2147289408,2147507968,2147088283,2146928969,2147706075,2147119835,869,-2,8,40155
1344814133,5805,916.4500122070312000,199.9259033203125000,497.8283996582031000,7.5968489646911620,37.8655815124511700,52,102,100,79,80,14054,2146959003,2147513819,2147297526,2147518509,2147091172,2146927972,2147722541,2147119232,1526,-2,8,904
1344817733,5805,948.8400268554688000,207.4752960205078000,504.4873046875000000,7.3902101516723630,37.5243301391601560,52,104,100,79,81,14055,2146955776,2147516059,2147297700,2147519762,2147090331,2146933001,2147723392,2147118528,3452,-2,8,6980
1344821333,5808,972.6199951171875000,215.5885925292968800,514.5800781250000000,7.0764369964599610,37.2285995483398440,52,101,99,79,82,14050,2146959350,2147516498,2147295524,2147523428,2147092096,2146921133,2147720694,2147122249,298,-1,8,20139
1344824933,5806,974.7600097656250000,217.3838043212890600,515.3425292968750000,7.0527071952819820,37.1399803161621100,54,100,100,79,81,14053,2146959798,2147512923,2147297307,2147518363,2147088704,2146926317,2147723382,2147119277,3143,-2,8,21013
1344828533,5807,978.2500000000000000,218.0198974609375000,517.5482788085938000,6.9840240478515625,37.1425209045410160,52,108,99,79,81,14045,2146959433,2147518070,2147296960,2147522093,2147089965,2146923245,2147716278,2147119890,394,-2,8,50219
1344832133,5804,985.8099975585938000,219.4765930175781200,517.0745239257812000,6.9987812042236330,37.0524406433105500,53,102,100,81,81,14039,2146958299,2147514066,2147294948,2147524589,2147091748,2146920868,2147724059,2147118217,3515,-1,8,20016
1344835733,5805,982.1799926757812000,218.9098052978515600,517.9746704101562000,6.9707441329956055,37.1001014709472660,53,102,100,79,80,14046,2146956077,2147516489,2147295652,2147522486,2147089462,2146921801,2147722788,2147119405,210,-1,8,45327
1344839333,5806,985.3400268554688000,218.9465942382812500,518.5850219726562000,6.9517350196838380,37.1084289550781250,53,104,100,79,81,14046,2146958930,2147516352,2147295021,2147521636,2147086070,2146921545,2147721636,2147117924,231,-1,8,5307
1344842933,5804,975.4000244140625000,223.0634002685547000,521.5125732421875000,6.8605031967163090,36.9311981201171900,52,103,100,79,81,14046,2146958500,2147518464,2147297188,2147524818,2147088100,2146922971,2147724617,2147116937,1361,-2,8,22904
1344846533,5807,980.0700073242188000,221.9566955566406200,521.7205810546875000,6.8540182113647460,36.9965705871582000,52,101,99,79,80,14043,2146956708,2147513417,2147298532,2147523355,2147088064,2146921142,2147725193,2147118793,272,-1,8,30143
1344850133,5807,980.1500244140625000,223.2949066162109400,522.1104125976562000,6.8418660163879395,36.9292106628418000,52,100,100,79,80,14013,2146959625,2147514404,2147295186,2147520822,2147093330,2146919945,2147721472,2147117659,3019,-2,8,6030
1344853733,5806,978.7399902343750000,223.6905975341797000,524.0717163085938000,6.7807040214538570,36.9422416687011700,52,101,100,80,80,14041,2146955364,2147517961,2147294518,2147523538,2147094162,2146926089,2147723730,2147117952,3521,-1,8,40418
1344857333,5805,976.4799804687500000,223.3876037597656200,524.7124023437500000,6.7607159614562990,36.9701995849609400,51,109,100,79,81,14040,2146960512,2147514240,2147298642,2147524864,2147091611,2146921426,2147726573,2147117723,2910,-1,8,9185
1344860933,5805,986.7399902343750000,223.3807067871093800,523.3676757812500000,6.8026609420776370,36.9465904235839840,53,102,100,79,81,14039,2146959890,2147515035,2147299108,2147523611,2147090861,2146920219,2147725714,2147117805,3478,-2,8,40869
1344864533,5805,988.4099731445312000,223.3451995849609400,522.2144165039062000,6.8386240005493160,36.9285011291503900,52,102,101,79,81,14039,2146957476,2147516013,2147300032,2147525613,2147088566,2146920640,2147717970,2147118189,3476,-2,8,35189
1344868133,5808,987.9000244140625000,221.6345062255859400,521.0615234375000000,6.8745632171630860,37.0026016235351560,52,103,100,79,80,14037,2146959680,2147519442,2147299593,2147521179,2147090596,2146923776,2147726189,2147115794,737,-2,8,46215
1344871733,5804,988.1400146484375000,221.9848022460937500,520.3507080078125000,6.8967170715332030,36.9699897766113300,52,101,99,79,81,14033,2146956690,2147515328,2147298761,2147522139,2147092516,2146921819,2147725366,2147116022,3261,-2,8,43860
1344875333,5803,991.6099853515625000,221.9344940185547000,520.1782226562500000,6.9020938873291020,36.9700698852539060,52,103,99,80,80,14006,2146956873,2147515273,2147298304,2147524745,2147089755,2146920164,2147723840,2147120283,3207,-2,8,40210
1344878933,5805,987.5900268554688000,221.8406066894531200,520.8300170898438000,6.8817811012268070,36.9864006042480500,52,102,100,79,80,14036,2146959542,2147514770,2147295003,2147525257,2147090953,2146921709,2147720978,2147117165,2966,-2,8,20386
1344882533,5806,990.4199829101562000,222.1865997314453000,520.7039184570312000,6.8857111930847170,36.9655418395996100,52,100,100,78,81,14036,2146960457,2147514934,2147297280,2147523538,2147089929,2146918107,2147724416,2147118564,3447,-1,8,31166
1344886133,5807,994.1599731445312000,220.9633026123047000,519.2770996093750000,6.9301719665527340,37.0080909729003900,53,104,99,79,80,14035,2146958336,2147513974,2147296475,2147524644,2147089664,2146923876,2147727296,2147118144,401,-2,8,56646
1344889733,5808,992.2399902343750000,222.7736053466797000,521.7609863281250000,6.8527588844299320,36.9519309997558600,52,103,99,80,79,14036,2146959908,2147516992,2147296822,2147524278,2147092022,2146920036,2147728009,2147116013,247,-1,8,51301
1344893333,5806,988.7399902343750000,223.2093963623047000,522.4677124023438000,6.8307251930236820,36.9395904541015600,51,103,100,79,82,14032,2146960749,2147517440,2147296374,2147523529,2147090304,2146920896,2147721024,2147118811,161,-1,8,31600
1344896933,5808,989.5000000000000000,223.4734039306640600,522.3300170898438000,6.8350181579589840,36.9226608276367200,53,103,101,79,81,14036,2146960612,2147516571,2147296265,2147521499,2147091949,2146919661,2147722048,2147119350,401,-2,8,46446
1344900533,5806,992.2000122070312000,224.2749938964843800,523.0081787109375000,6.8138699531555180,36.8911399841308600,52,103,100,79,81,14036,2146958582,2147516626,2147297316,2147523593,2147089280,2146922358,2147725696,2147121088,234,-2,8,51768
1344904133,5806,990.6599731445312000,224.4004974365234400,523.1262817382812000,6.8101887702941895,36.8863105773925800,52,106,99,79,81,14032,2146960694,2147515117,2147297609,2147526052,2147092260,2146925851,2147730285,2147118784,569,-2,8,29836
1344907733,5804,990.7899780273438000,224.6206970214843800,524.7985839843750000,6.7580280303955080,36.9036216735839840,52,102,100,79,80,14032,2146958445,2147514139,2147296475,2147526784,2147088886,2146922779,2147725284,2147122523,3389,-2,8,33936
1344911333,5806,991.2500000000000000,225.1309051513672000,524.9039916992188000,6.7547402381896970,36.8779106140136700,53,103,105,78,80,14025,2146957814,2147515638,2147300141,2147521929,2147089508,2146923794,2147723904,2147119798,3204,-2,8,34445
1344914933,5804,985.0000000000000000,224.9597930908203000,524.8439941406250000,6.7566118240356445,36.8856086730957000,53,102,99,79,81,14028,2146958052,2147516205,2147294875,2147526884,2147088466,2146916150,2147726299,2147116589,3465,-1,8,40787
1344918533,5804,991.5800170898438000,224.5205993652343800,524.5897216796875000,6.7645459175109860,36.9051589965820300,52,102,98,78,81,14028,2146956315,2147517074,2147299904,2147523008,2147093266,2146929142,2147725504,2147116662,3348,-1,8,15672
1344922133,5804,990.9500122070312000,223.3260040283203000,523.4624023437500000,6.7997069358825680,36.9514198303222660,51,102,100,78,81,14028,2146956772,2147515428,2147295277,2147522642,2147091044,2146920301,2147723757,2147116672,2865,-2,8,53304
1344925733,5806,992.0900268554688000,223.7993927001953000,523.4578857421875000,6.7998480796813965,36.9253501892089840,53,102,99,79,81,14028,2146957632,2147518372,2147295862,2147521883,2147090989,2146922971,2147724004,2147117193,3356,-1,8,53303
1344929333,5805,992.0999755859375000,224.7940979003906200,524.7324829101562000,6.7600898742675780,36.8932991027832000,52,102,99,78,81,14028,2146958098,2147515867,2147297709,2147525659,2147094016,2146922816,2147723090,2147118400,3126,-1,8,5001
1344932933,5807,994.6500244140625000,223.9947967529297000,525.0842895507812000,6.7491149902343750,36.9432601928710940,52,102,101,80,80,14027,2146959232,2147513865,2147296530,2147521837,2147093814,2146922944,2147725010,2147117019,51,-1,8,62950
1344936533,5809,994.7600097656250000,224.3661041259765600,524.9705200195312000,6.7526659965515140,36.9207000732421900,52,105,99,79,80,14024,2146956480,2147513810,2147298194,2147522907,2147093129,2146924708,2147721014,2147119341,200,-1,8,52571
1344940133,5805,993.8300170898438000,222.6871032714843800,522.3430175781250000,6.8346128463745120,36.9664993286132800,52,101,99,78,81,14021,2146957513,2147519085,2147299318,2147520466,2147092160,2146925970,2147721435,2147118957,705,-1,8,25642
1344943733,5804,997.3099975585938000,222.6840057373047000,521.6766967773438000,6.8553857803344730,36.9551811218261700,52,104,102,79,81,14023,2146960640,2147517897,2147296804,2147524827,2147094747,2146923812,2147721746,2147115300,2502,-2,8,49472
1344947333,5804,997.0800170898438000,222.1791992187500000,521.8289794921875000,6.8506388664245605,36.9860305786132800,53,104,100,78,80,14023,2146960228,2147517741,2147297051,2147523995,2147092297,2146916589,2147717595,2147119040,2944,-2,8,6450
1344950933,5804,997.6599731445312000,223.2500000000000000,522.5911254882812000,6.8268790245056150,36.9395484924316400,53,102,101,79,80,14022,2146956845,2147513380,2147299574,2147525376,2147094034,2146920777,2147721472,2147117092,2465,-2,8,25363
1344951354,5807,966.0000000000000000,223.2346038818359400,522.5767211914062000,6.8273282051086430,36.9406204223632800,52,103,101,79,80,14026,2146957220,2147515456,2147296694,2147524470,2147091931,2146924598,2147722002,2147117805,2446,-2,8,18180
